Theta_e
319 319 319 317 317 319 319 322 322 321 321 322 324 325 328 329 328 327 329 329 330 329 328 329 328 327 326 323 320 317 315 314 314 315 313 315 316 318 317 317 315 317 313
319 319 319 319 316 320 319 321 320 320 322 324 325 325 326 328 328 328 328 328 329 328 327 327 327 326 325 324 321 314 312 312 315 316 316 317 318 319 318 315 318 316 312
317 318 317 318 317 319 319 320 320 320 320 323 325 325 325 326 326 323 324 327 327 327 327 327 326 326 325 323 322 315 316 316 318 317 317 315 314 315 316 315 313 311 308
317 318 317 317 317 317 320 320 320 320 320 319 322 324 323 322 321 319 321 321 322 323 325 325 325 325 324 322 318 317 315 318 319 318 316 316 315 313 316 314 311 309 308
319 320 319 314 316 317 319 320 320 320 320 320 320 319 319 318 318 317 317 317 315 317 317 316 316 317 317 318 321 319 315 319 318 318 318 316 315 314 316 315 314 310 308
321 321 320 315 314 316 317 319 319 319 320 320 319 319 319 319 320 320 321 321 320 316 314 317 320 319 318 318 318 319 317 321 321 319 319 318 318 316 315 314 313 310 311
322 321 320 316 316 316 316 317 318 319 320 319 319 319 319 318 318 317 317 318 319 319 319 319 318 318 318 318 317 317 317 318 319 320 321 319 320 316 314 313 313 312 313
322 321 320 317 316 317 316 317 317 318 319 319 319 319 318 317 316 314 313 313 313 313 313 314 314 314 312 310 310 312 313 315 315 316 316 319 316 316 314 314 314 312 309
322 321 320 317 316 317 317 315 315 316 317 317 317 317 316 314 312 308 306 308 307 306 306 306 305 304 302 303 307 309 309 310 312 314 314 315 314 313 312 310 309 308 308
321 321 321 318 316 317 318 315 313 314 315 315 315 314 313 313 311 308 306 304 303 302 299 299 299 299 300 300 301 301 305 305 302 302 303 304 305 304 304 304 306 305 304
320 320 321 319 316 316 315 315 314 312 313 311 311 311 311 312 311 311 309 305 306 304 305 304 303 302 303 303 303 304 304 304 301 299 300 300 299 298 297 297 299 302 302
320 320 322 321 316 316 315 315 314 314 314 314 314 314 312 311 311 311 312 311 310 313 313 312 309 307 307 307 307 307 307 305 304 303 303 302 301 301 301 301 297 297 300
320 321 322 322 319 315 316 316 317 316 315 315 314 313 312 309 310 310 311 312 312 312 314 312 310 310 310 309 308 307 306 305 306 306 306 305 303 302 300 299 297 298 299
320 322 322 323 322 319 316 316 316 317 316 315 314 314 314 313 310 309 310 310 310 310 310 309 309 309 309 309 308 307 306 307 306 306 306 305 303 301 300 300 299 299 299
321 322 322 322 322 321 319 316 315 316 316 316 316 316 318 318 318 316 313 312 312 312 311 310 309 309 309 310 310 308 307 306 305 304 304 304 303 303 303 302 301 299 299
321 321 322 321 322 321 320 319 315 314 313 314 314 317 318 317 317 317 316 316 317 317 317 314 314 312 312 314 314 314 312 308 307 306 305 304 303 302 301 301 300 300 301
321 321 321 322 322 321 321 320 319 317 315 313 313 313 314 314 316 316 316 318 319 318 314 313 312 312 313 314 314 312 311 309 304 303 301 299 298 299 298 299 299 300 300
320 320 321 321 322 322 322 322 321 321 322 320 318 317 316 317 317 316 317 318 318 317 314 314 316 317 315 313 311 307 305 301 299 300 298 299 298 298 298 299 299 299 299
320 320 320 321 321 322 322 322 322 322 322 323 320 318 320 321 320 318 316 318 320 317 315 313 311 310 308 302 301 300 298 299 298 298 298 299 299 299 299 300 300 298 298
321 320 320 321 321 322 322 322 323 323 323 323 323 319 316 318 316 313 314 315 314 313 310 306 303 301 300 300 300 298 299 299 299 300 300 300 300 300 300 300 300 300 300
321 320 319 322 322 322 321 322 322 323 323 324 320 317 317 317 314 313 311 307 305 302 300 301 302 302 302 299 299 299 299 299 299 299 299 299 299 300 300 299 299 300 299
320 320 320 321 322 322 321 322 323 323 320 316 311 312 312 309 305 304 303 303 305 304 304 303 301 302 300 299 298 298 297 297 297 297 298 298 298 299 299 299 298 297 297
320 320 321 321 321 321 321 321 319 318 315 311 309 309 309 308 306 304 303 304 304 305 301 299 297 298 298 297 296 296 296 296 296 296 297 297 298 297 297 297 295 295 294
320 320 321 321 319 320 318 316 314 312 311 310 310 309 306 304 303 304 304 301 299 297 297 297 297 296 295 295 295 295 295 295 296 296 296 296 296 296 296 295 295 293 293
321 320 320 318 317 314 312 311 310 311 309 306 304 303 302 302 300 299 298 299 297 297 295 294 294 294 294 294 294 294 294 294 294 294 295 295 295 294 294 293 293 293 292
320 319 317 316 314 314 312 310 308 306 304 303 303 300 300 300 299 297 297 297 296 294 294 294 294 293 293 293 294 294 294 294 294 293 294 294 294 294 294 293 293 292 290
Wind_Speed
4 3 2 5 6 8 9 7 5 6 6 9 11 11 13 15 15 15 10 10 9 14 13 16 17 20 18 15 13 8 9 9 16 9 14 14 13 10 11 10 11 10 11
7 5 3 5 6 7 9 11 10 9 10 11 15 17 17 16 14 14 11 11 15 14 13 13 16 16 17 15 11 7 9 9 16 18 15 11 10 11 11 12 11 10 12
8 7 6 5 6 8 8 10 12 12 14 12 15 18 18 20 18 18 18 17 16 14 14 16 17 16 14 13 10 8 8 10 16 19 15 10 9 13 13 11 11 12 10
10 8 7 7 6 8 9 9 10 11 13 15 16 17 18 18 18 18 19 21 20 18 17 18 17 15 16 16 11 9 10 12 11 13 11 10 9 12 10 12 11 10 10
13 10 8 8 9 9 10 9 9 11 13 14 16 16 16 16 15 16 17 17 17 17 16 15 13 11 11 11 9 12 12 11 11 12 11 10 11 12 15 12 12 12 11
15 13 11 10 12 11 11 11 10 11 13 14 13 13 13 13 11 11 13 14 15 15 16 14 14 13 11 8 6 6 10 12 11 11 11 13 13 13 12 12 12 12 11
16 14 14 13 13 13 14 14 13 12 12 12 12 11 9 10 9 8 8 9 11 11 12 12 12 10 7 6 6 6 7 9 9 10 11 12 11 15 14 15 17 17 17
18 17 15 14 14 14 15 15 15 14 13 13 11 9 7 7 7 7 8 9 10 10 10 10 9 9 9 7 7 7 7 8 8 9 11 11 12 12 16 15 15 15 14
20 20 19 17 17 16 15 16 17 16 15 14 13 11 9 9 9 8 8 9 10 10 11 11 10 9 9 8 7 6 5 6 9 11 12 13 15 17 18 17 15 15 16
23 23 21 20 20 19 18 18 17 16 15 12 12 12 11 10 12 12 12 12 13 12 11 11 10 10 9 9 8 7 6 7 9 10 12 15 17 18 19 21 14 17 17
23 23 23 22 21 21 20 20 18 17 14 15 14 14 13 13 14 15 15 14 11 12 9 10 11 11 10 9 8 8 8 9 10 11 12 13 15 15 17 20 21 19 20
25 24 24 23 22 21 23 22 19 18 17 16 14 13 14 16 16 16 17 16 12 8 8 8 9 8 8 10 12 11 12 13 12 12 13 13 13 14 15 18 22 25 23
25 25 24 24 23 23 24 22 19 19 16 15 14 13 12 15 17 18 17 16 16 15 10 10 10 11 12 13 14 13 15 17 14 15 15 15 13 14 16 17 21 23 25
29 26 24 24 24 22 22 21 20 20 19 17 16 15 13 13 15 17 18 19 19 19 19 17 17 16 16 15 16 15 17 14 14 16 17 15 15 14 14 16 19 19 20
30 28 26 25 26 23 23 23 23 22 21 19 19 17 15 15 14 14 13 12 13 14 14 15 14 11 11 10 9 9 10 10 11 12 14 15 18 15 16 16 18 19 22
31 30 30 28 25 25 23 21 28 26 27 27 26 20 14 17 17 19 16 9 8 8 12 12 10 7 7 6 6 4 6 7 8 10 11 11 13 13 13 15 16 17 21
37 33 31 32 29 28 25 23 21 26 30 29 29 31 30 25 22 17 13 8 8 12 9 10 9 7 6 3 5 4 5 5 8 6 10 12 10 11 13 13 13 15 18
38 37 34 33 32 30 28 26 23 21 19 22 28 31 29 25 23 18 15 15 12 10 7 5 2 4 3 4 7 7 5 6 6 9 9 9 9 10 12 14 14 15 16
36 35 38 33 32 31 30 29 27 24 22 20 11 5 5 6 11 12 10 7 4 3 2 2 4 7 6 10 13 7 4 8 10 8 7 8 9 10 12 13 15 14 15
34 33 32 28 28 27 28 28 28 27 26 21 13 10 12 12 11 11 9 10 14 17 12 15 18 13 11 14 11 6 8 9 10 7 9 9 10 10 12 13 13 14 14
28 30 32 27 28 28 27 25 24 22 18 15 13 14 16 17 18 17 17 17 17 20 19 22 15 14 18 12 8 8 9 8 8 8 9 9 10 10 10 11 12 13 15
27 28 34 32 28 28 25 21 18 16 17 18 18 23 25 22 23 22 21 24 26 21 17 20 17 17 14 11 6 7 8 8 8 9 10 10 10 10 10 12 13 13 14
27 27 27 25 21 22 22 21 21 21 23 25 27 26 22 23 23 24 23 25 20 25 19 17 17 21 14 12 9 8 7 7 9 10 9 9 8 9 9 11 12 14 14
22 22 24 21 22 23 23 23 24 29 31 30 28 27 27 25 26 28 30 30 25 22 22 16 17 18 15 12 11 12 11 9 8 7 6 8 9 10 11 11 12 13 12
21 24 24 25 27 28 30 30 31 30 29 30 31 34 34 37 36 32 31 32 26 25 23 23 20 20 18 17 14 12 11 9 9 8 7 8 9 10 11 11 13 15 18
19 24 27 25 27 30 34 35 34 35 36 36 42 38 41 35 34 26 22 23 23 24 23 21 22 19 16 14 11 10 9 9 10 12 9 10 12 14 15 15 17 17 18
Wind_Direction
184 175 94 88 84 62 84 93 74 73 88 102 117 130 156 168 169 174 162 164 150 156 155 166 157 165 165 165 169 159 149 149 147 137 145 152 148 151 163 168 175 182 195
183 172 155 112 103 86 83 86 88 71 87 95 107 108 111 125 136 135 138 146 153 149 164 158 153 158 163 165 158 149 155 150 148 145 149 158 150 167 177 187 190 186 182
167 170 168 144 118 116 93 98 107 89 83 90 99 103 110 117 118 123 126 130 136 146 151 153 151 158 159 156 156 167 158 152 158 161 156 162 165 183 185 186 178 178 176
167 165 163 159 146 141 125 106 112 111 103 96 99 105 109 116 120 116 119 122 128 129 135 141 146 155 161 162 161 162 150 156 156 150 155 168 178 190 188 187 182 187 186
172 172 170 167 165 156 151 134 121 125 123 118 113 109 108 108 109 114 116 118 120 126 128 127 132 140 149 158 171 180 169 165 167 173 175 182 189 184 198 197 203 199 208
181 177 173 173 171 167 161 155 149 142 138 134 132 129 126 121 117 118 126 126 126 129 136 140 145 157 159 152 145 152 187 183 182 191 196 207 205 205 200 204 203 206 223
187 180 174 173 172 171 170 167 165 159 156 155 150 142 135 136 139 141 147 153 153 155 156 158 162 164 165 177 187 194 198 203 213 221 217 220 220 219 212 211 215 223 233
187 183 180 177 175 174 174 173 174 173 171 169 170 172 172 170 172 171 172 173 174 175 179 181 182 184 190 191 191 193 200 211 223 228 237 241 249 252 244 245 237 240 245
187 184 184 181 181 177 176 179 180 180 182 185 189 191 189 189 186 176 172 164 167 170 172 173 171 172 172 170 169 175 197 224 233 238 241 246 249 249 249 241 230 225 244
190 187 186 184 185 185 183 184 187 189 192 191 197 202 197 190 186 177 172 168 173 176 177 178 176 179 181 186 188 193 207 227 234 239 242 246 248 250 246 243 241 235 243
191 185 184 186 187 188 186 189 189 189 189 194 197 202 204 202 196 192 188 181 183 184 185 195 199 199 203 208 217 228 236 250 251 252 255 258 258 255 252 246 239 236 244
190 185 184 187 187 188 188 188 190 191 192 197 201 207 212 209 206 206 209 207 205 197 201 204 215 220 232 240 247 258 259 257 251 250 253 257 258 258 257 251 251 247 242
192 188 186 187 189 190 188 189 189 193 194 199 203 209 213 216 218 218 220 227 232 237 238 237 248 255 254 255 259 264 260 256 255 258 263 265 261 267 270 265 267 259 256
193 192 188 188 190 193 195 195 194 196 199 200 203 210 209 210 217 223 229 236 244 250 259 269 269 267 269 263 270 270 262 261 265 274 282 288 293 286 280 276 270 269 263
192 193 192 193 195 197 200 200 203 209 205 203 211 213 210 219 222 224 234 245 259 272 272 268 264 259 262 266 269 269 267 265 273 285 293 299 292 284 288 285 278 275 269
191 195 196 195 198 201 202 207 219 219 223 227 235 236 236 247 259 272 284 291 289 281 266 252 258 261 273 284 284 297 308 314 312 306 299 289 289 296 300 295 284 272 278
194 197 196 195 197 199 202 205 211 225 231 237 243 250 258 259 270 283 292 278 263 262 252 276 291 309 304 300 298 326 319 324 327 331 312 301 309 316 310 299 296 292 291
195 196 196 201 198 198 204 207 210 213 216 232 245 250 253 254 260 265 267 273 279 271 252 256 269 311 340 25 9 351 19 356 30 22 329 316 334 319 315 313 310 306 303
197 198 198 197 202 202 199 204 210 214 219 225 212 224 232 229 233 232 189 192 179 167 125 64 55 69 46 62 79 13 357 55 22 4 339 337 338 329 319 318 315 312 311
204 204 200 198 195 198 204 206 206 211 215 217 201 176 150 132 130 134 128 127 128 112 116 118 98 93 91 80 54 80 44 34 45 6 344 342 338 330 327 327 328 327 322
202 200 195 194 191 193 199 204 212 211 206 177 161 159 158 138 126 121 115 113 112 107 118 106 110 103 91 70 71 50 50 34 25 6 357 351 345 339 337 333 330 329 331
194 195 192 195 199 199 202 202 193 168 156 138 124 133 134 124 120 118 117 120 115 113 121 115 115 101 98 92 83 65 56 45 30 20 15 9 6 360 353 348 342 338 337
188 186 191 190 190 182 164 165 156 148 141 136 133 131 127 122 120 120 119 118 117 122 117 114 119 106 103 98 83 76 68 45 29 21 15 9 7 2 360 355 349 344 333
170 172 163 164 161 157 152 144 141 141 138 135 132 129 125 123 123 127 126 121 121 126 119 124 106 99 96 89 75 55 46 38 25 16 13 3 356 350 347 342 338 334 328
156 142 145 150 143 131 129 129 129 131 130 128 126 126 127 128 129 130 133 127 137 128 120 111 106 96 88 80 73 65 57 50 41 35 13 3 356 352 349 339 332 328 331
144 142 137 140 138 138 136 135 132 132 129 131 132 137 132 135 137 135 135 131 129 126 118 109 99 93 86 78 72 68 59 48 38 26 24 8 360 351 343 336 334 334 329